Regional Weather Roundup
Issued by NWS Albany, NY

Home | Current Version | Previous Version | Text Only | Print | Product List | Glossary On
Versions: 1 2 3 4 5 6 7 8 9 10 11 12 13 14 15 16 17 18 19 20 21 22 23 24 25 26 27 28 29 30 31 32 33 34 35 36 37 38 39 40 41 42 43 44 45 46 47 48 49 50
000
ASUS41 KALY 261710
RWRALY

NEW YORK STATE HOURLY WEATHER ROUNDUP
NATIONAL WEATHER SERVICE ALBANY NY
1200 PM EST FRI DEC 26 2014

NOTE: "FAIR" INDICATES FEW OR NO CLOUDS BELOW 12,000 FEET WITH NO
SIGNIFICANT WEATHER AND/OR NO OBSTRUCTIONS TO VISIBILITY.

NYZ032-033-038>043-046>054-057>066-NYZ062>081-261800-
EAST


CITY           SKY/WX    TMP DP  RH WIND       PRES   REMARKS
ALBANY         PTSUNNY   44  28  53 W12G23    30.20F
GLENS FALLS    CLOUDY    44  30  57 SW7       30.16F
POUGHKEEPSIE   SUNNY     47  29  49 W5        30.20F
NEWBURGH       SUNNY     41  34  75 W9        30.22
MONTGOMERY     SUNNY     47  28  47 NW10      30.20F
WHITE PLAINS   SUNNY     46  29  51 W8        30.20F
ISLIP          MOSUNNY   48  30  49 W8        30.20F
NEW YORK CITY  MOSUNNY   46  29  51 W13       30.23F
CENTRAL PARK   SUNNY     47  27  45 VRB5      30.25F
$$

NYZ005>009-017-018-044>046-055-056-261800-
CENTRAL


CITY           SKY/WX    TMP DP  RH WIND       PRES   REMARKS
FULTON         CLOUDY    43  31  62 SW10      30.20F
SYRACUSE       CLOUDY    42  29  59 W15       30.21F
ROME           CLOUDY    40  31  70 W9        30.22F WCI  34
ELMIRA         SUNNY     42  28  57 SW8       30.22F
BINGHAMTON     SUNNY     40  28  62 W9        30.19F WCI  34
MONTICELLO     SUNNY     41  30  65 W8        30.20F
$$

NYZ026>034-041>043-261800-
NORTH


CITY           SKY/WX    TMP DP  RH WIND       PRES   REMARKS
WATERTOWN      PTSUNNY   42  29  59 SW13G21   30.18F
FORT DRUM      NOT AVBL
MASSENA        PTSUNNY   40  29  64 SW21      30.13F WCI  30
SARANAC LAKE   CLOUDY    33  28  81 SW9       30.07F WCI  25
PLATTSBURGH    MOSUNNY   43  28  55 W8        30.11F
$$

NYZ001>004-010>016-019>021-261800-
WEST


CITY           SKY/WX    TMP DP  RH WIND       PRES   REMARKS
NIAGARA FALLS  MOSUNNY   43  33  68 SW18G26   30.16F
BUFFALO        PTSUNNY   42  31  64 SW9       30.17F
DUNKIRK        SUNNY     46  32  58 S12G21    30.17F
JAMESTOWN      SUNNY     39  30  70 S9        30.15F WCI  33
WELLSVILLE     SUNNY     37  26  64 SW9       30.18F WCI  30
ROCHESTER      MOSUNNY   45  30  55 SW15      30.17F
PENN YAN       SUNNY     42  29  59 SW12      30.21F
$$

             KEY
       WCI = WIND CHILL INDEX
       VSB = VISIBILITY
       HX  = HEAT INDEX
$$


USA.gov is the U.S. government's official web portal to all federal, state and local government web resources and services.